Location: Knowlton
(51.2333°N, 1.2667°E)
Time: 04:16:56
(UTC+00:00)

ZACube-1 - Pass Details

Date: 29 November 2021
Orbit: 582 x 665 km, 97.6° (Epoch: 25 January)

Event Time Altitude Azimuth Distance (km) Brightness Sun altitude
Rises 04:34:53 0° 12° (NNE) 2,976 ? -27.2°
Reaches altitude 10° 04:37:05 10° 12° (NNE) 2,071 ? -26.8°
Enters shadow 04:39:07 27° 10° (N) 1,276 ? -26.5°
